ラッセル第3彗星

91P/Russell 3 (2013)

English version
Home page
Updated on February 10, 2013

---------------------------------------------------------------------

・ プロフィール

・ 軌道要素

Epoch 2013 Mar. 9.0 TT = JDT 2456360.5
T 2013 Mar. 1.17211 TT                                  MPC
q   2.6168131            (2000.0)            P               Q
n   0.12796360     Peri.  354.64831     -0.45885404     +0.85947550
a   3.9001241      Node   247.87110     -0.80590492     -0.50935776
e   0.3290436      Incl.   14.07566     -0.37412595     +0.04308743
P   7.70
From 238 observations 1996 Nov. 18-2012 May 23, mean residual 0".8.
     Nongravitational parameters A1 = -1.60, A2 = +0.1207.

・ 星図

・ 光度変化

        m1 = 7.5 + 5 logΔ + 20.0 log r

---------------------------------------------------------------------

軌道要素はM.P.E.C. 2012-L04に掲載されたものです。
星図はステラナビゲータ Ver.8 (アストロアーツ) で作成したものです。
光度グラフはComet for Windowsで作成したものです。

---------------------------------------------------------------------

Copyright(C) Seiichi Yoshida (comet@aerith.net). All rights reserved.